Location: Zilina
(0.0000°N, 18.7333°E)
Time: 02:45:12
(UTC+01:00)

ATLAS 2A CENTAUR R/B - Pass Details

Date: 19 February 2019
Orbit: 265 x 16214 km, 26.9° (Epoch: 18 March)

Event Time Altitude Azimuth Distance (km) Brightness Sun altitude
Rises 18:46:17 0° 252° (WSW) 2,214 7.0 -11.6°
Reaches altitude 10° 18:47:35 10° 257° (WSW) 1,608 5.8 -11.9°
Maximum altitude 18:50:42 60° 339° (NNW) 899 2.9 -12.7°
Enters shadow 18:59:29 14° 56° (NE) 4,477 5.8 -14.9°
